Regional Weather Roundup
Issued by NWS

Home | Current Version | Previous Version | Graphics & Text | Print | Product List | Glossary On
Versions: 1 2 3 4 5 6 7 8 9 10 11 12 13 14 15 16 17 18 19 20 21 22 23 24 25 26 27
000
ASUS45 KTFX 260010
RWRMT
MONTANA REGIONAL WEATHER ROUNDUP
NATIONAL WEATHER SERVICE GREAT FALLS MT
600 PM MDT WED APR 25 2018

NOTE: "FAIR" INDICATES FEW OR NO CLOUDS BELOW 12000 FEET WITH NO
SIGNIFICANT WEATHER AND/OR OBSTRUCTIONS TO VISIBILITY.

MTZ001>007-043-260100-
WEST OF THE DIVIDE

CITY           SKY/WX    TMP DP  RH WIND       PRES   REMARKS
KALISPELL      FAIR      67  29  24 NE12      30.08R
MISSOULA       FAIR      68  27  21 NW14      30.06R
BUTTE          PTSUNNY   60  20  21 NW21G28   30.11R
MULLAN PASS    FAIR      55  23  28 CALM      30.19S
ANACONDA         N/A     63  21  20 MISG      30.10S
DEER LODGE       N/A     63  27  25 MISG      30.12R
HAMILTON         N/A     68  25  19 W12G21    30.09S
RONAN            N/A     68  32  26 N8        30.10R
$$

MTZ008-052>055-260100-
SOUTHWEST MONTANA

CITY           SKY/WX    TMP DP  RH WIND       PRES   REMARKS
BOZEMAN        CLOUDY    59  30  33 N20       30.08R
DILLON         FAIR      64  23  21 NW9       30.09R
ENNIS          MOSUNNY   63  23  22 NW10      30.12S
W YELLOWSTONE  CLOUDY    50  21  32 SW9G20    30.13S
THREE FORKS      N/A     60  32  34 N20       30.07R
$$

MTZ009-010-012-014-046-048-049-054-260100-
EAST SLOPES AND CENTRAL MONTANA

CITY           SKY/WX    TMP DP  RH WIND       PRES   REMARKS
CUT BANK       FAIR      56  28  34 NE8       30.18S
GREAT FALLS    PTSUNNY   52  32  46 VRB5      30.20R
MALMSTROM AFB  FAIR      52  33  47 S8        30.20R
HELENA         FAIR      58  34  40 N17       30.16R
AUGUSTA        CLOUDY    51  29  43 NE6       30.20R
CHOTEAU          N/A     55  28  35 N8        30.21R
POWER          PTSUNNY   53  26  35 N9        30.18R
RAYNESFORD     PTSUNNY   49  35  58 SW5       30.20R
ULM            PTSUNNY   49  38  65 SE8       30.20R
WHITE SULPHUR    N/A     52  30  43 NW21G28   30.15R
$$

MTZ011-013-016-021-045-047-050-051-260100-
NORTH CENTRAL MONTANA

CITY           SKY/WX    TMP DP  RH WIND       PRES   REMARKS
HAVRE          CLOUDY    59  30  33 NW20G25   30.12R
LEWISTOWN      LGT RAIN  44  37  76 NW10      30.17R
N BAR RANCH    LGT RAIN  45  34  65 NW26G37   30.18R
CHINOOK          N/A     57  32  38 MISG      30.11R
GEYSER         PTSUNNY   47  36  65 W12       30.19R
GRASS RANGE    LGT RAIN  45  37  73 W13       30.13R
$$

MTZ017>020-022>027-061-062-260100-
NORTHEAST MONTANA

CITY           SKY/WX    TMP DP  RH WIND       PRES   REMARKS
GLASGOW        FAIR      66  26  22 N24       29.98R
GLENDIVE       FAIR      63  29  27 NW21G31   29.90R
JORDAN           N/A     63  27  25 N23G35    29.98R
MALTA          PTSUNNY   61  30  31 NW16G25   30.04R
SIDNEY         FAIR      66  30  26 NW21      29.85R
WOLF POINT     FAIR      69  26  20 N25G33    29.93R
PLENTYWOOD       N/A     63  27  25 MISG      29.89R
POPLAR           N/A     64  25  22 MISG      29.91R
$$

MTZ028>42-056>058-260100-
SOUTHCENTRAL AND SOUTHEAST MONTANA

CITY           SKY/WX    TMP DP  RH WIND       PRES   REMARKS
BAKER          FAIR      61  30  31 NW18      29.91R
BILLINGS       PTSUNNY   62  28  27 N21G28    30.03R
LIVINGSTON     PTSUNNY   60  27  28 N29       30.07R
MILES CITY     PTSUNNY   64  34  32 NW29G35   29.94R
BIG TIMBER     MOSUNNY   59  25  27 NW21G32   30.10R
FORSYTH          N/A     63  34  34 MISG      29.96R
HARLOWTON      FAIR      49  30  48 N40G48    30.09R
LAUREL           N/A     63  27  25 NW14G21   30.04R
$$

REGIONAL REPORTS...DAKOTAS

CITY           SKY/WX    TMP DP  RH WIND       PRES   REMARKS
WILLISTON      FAIR      66  29  24 N21G31    29.83R
MINOT          FAIR      68  28  22 SW12      29.75F
DICKINSON      FAIR      64  30  27 W13G23    29.83S
BEACH          FAIR      64  21  19 NW22G29   29.91R
CROSBY         FAIR      63  30  29 N17       29.86R
TIOGA          FAIR      63  28  27 N21G29    29.83R
WATFORD CITY   FAIR      66  30  26 NW14G21   29.82S
BISMARCK       FAIR      69  25  19 SW13      29.81F
GRAND FORKS    PTSUNNY   59  40  49 SW16G25   29.81F
FARGO          FAIR      62  31  31 S22       29.87F
BUFFALO SD       N/A     67  25  20 NW24      29.83
RAPID CITY     FAIR      72  23  16 W5        29.86F
$$

REGIONAL REPORTS...WYOMING/IDAHO/WASHINGTON

CITY           SKY/WX    TMP DP  RH WIND       PRES   REMARKS
GILLETTE       FAIR      63  23  21 N26G35    29.94R
SHERIDAN       FAIR      61  25  25 NW21G29   30.00R
BUFFALO WY     FAIR      61  20  20 NW31G43   30.01R
CODY           FAIR      60  21  22 NE15      30.05R
YELLOWSTONE LA   N/A     47  17  30 VRB7G18   30.20R
IDAHO FALLS    FAIR      63  25  23 W10       30.11S
SALMON         FAIR      70  25  18 W18       30.06S
BOISE          FAIR      76  29  17 N14       30.09F
SPOKANE        FAIR      72  29  20 VRB6      30.10S
$$

REGIONAL REPORTS...ALBERTA

CITY           SKY/WX    TMP DP  RH WIND       PRES   REMARKS
CALGARY        MOSUNNY   57  27  30 VRB2      30.14S
CARDSTON         N/A     55  30  38 E3          N/A
EDMONTON       SUNNY     61  23  23 W7        30.06F
FORT MCMURRAY  SUNNY     63  21  20 W15       29.91F
HIGH LEVEL     PTSUNNY   64  25  22 W7        29.83S
LETHBRIDGE     MOSUNNY   59  28  31 NW9       30.16S
LLOYDMINSTER   MOSUNNY   59  21  23 NW12G21   30.04F
MEDICINE HAT   MOSUNNY   59  25  27 NW18      30.11R
ONEFOUR          N/A     57  27  30 NW22G29     N/A
PEACE RIVER    MOSUNNY   57  30  35 W16       29.98F
PINCHER CREEK  SUNNY     55  30  38 SE7       30.15F
WATERTON GATE    N/A     55  27  33 NE6         N/A
$$

REGIONAL REPORTS...SASKATCHEWAN

CITY           SKY/WX    TMP DP  RH WIND       PRES   REMARKS
CORONACH         N/A     61  27  27 NW24G32     N/A
CYPRESS HILLS    N/A     52  18  25 NW14G30     N/A
ESTEVAN        CLOUDY    63  32  31 N24G30    29.85R
PRINCE ALBERT  MOSUNNY   57  25  28 N16G24    30.00R
REGINA         MOSUNNY   59  27  29 N21G30    29.97R
ROCKGLEN         N/A     57  27  30 NW20G31     N/A
SASKATOON      MOSUNNY   59  23  25 N18G25    30.02R
SWIFT CURRENT  MOSUNNY   57  27  30 NW22G29   30.02R
VAL MARIE        N/A     59  27  29 NW25        N/A
$$




USA.gov is the U.S. government's official web portal to all federal, state and local government web resources and services.